Location: Lower Kingswood
(51.2667°N, 0.2167°W)
Time: 11:21:38
(UTC+00:00)

Cosmos 2237 - Pass Details

Date: 26 September 2023
Orbit: 845 x 857 km, 70.8° (Epoch: 10 December)

Event Time Altitude Azimuth Distance (km) Brightness Sun altitude
Rises 03:36:45 0° 326° (NW) 3,439 7.3 -21.4°
Reaches altitude 10° 03:39:17 10° 321° (NW) 2,499 6.5 -21.0°
Maximum altitude 03:44:44 46° 250° (WSW) 1,139 4.4 -20.2°
Drops below altitude 10° 03:50:10 10° 178° (S) 2,485 6.4 -19.5°
Sets 03:52:41 0° 173° (S) 3,417 7.2 -19.1°
